GW3799 Weather Reports


time (UTC)temp
C
wind
direction
speed
KPH
gust
KPH
rain 1hr
cm
rain 24hr
cm
rain mn
cm
humidity
%
barometer
mb
20260506143058 21 13 3.2 9.7 0.00 0.00 0.00 63 1008.9
20260506142556 21 318 1.6 11.3 0.00 0.00 0.00 64 1008.7
20260506142055 20 286 3.2 11.3 0.00 0.00 0.00 64 1008.7
20260506141601 20 292 3.2 8.0 0.00 0.00 0.00 64 1008.8
20260506141100 21 321 3.2 8.0 0.00 0.00 0.00 63 1008.7
20260506140600 21 44 1.6 6.4 0.00 0.00 0.00 64 1008.8
20260506140057 20 342 1.6 11.3 0.00 0.00 0.00 64 1008.7
20260506135559 20 338 3.2 16.1 0.00 0.00 0.00 64 1008.9
20260506135054 20 314 3.2 16.1 0.00 0.00 0.00 65 1008.9
20260506134556 20 291 3.2 14.5 0.00 0.00 0.00 65 1008.9
20260506134057 20 16 3.2 14.5 0.00 0.00 0.00 65 1008.7
20260506133554 20 42 4.8 11.3 0.00 0.00 0.00 65 1008.9
20260506133116 20 10 4.8 11.3 0.00 0.00 0.00 65 1009.0
20260506132554 20 77 1.6 9.7 0.00 0.00 0.00 66 1008.7
20260506132057 20 311 1.6 14.5 0.00 0.00 0.00 66 1008.7
20260506131555 20 238 3.2 14.5 0.00 0.00 0.00 67 1008.8
20260506131057 20 281 3.2 11.3 0.00 0.00 0.00 68 1009.0
20260506130557 19 288 1.6 6.4 0.00 0.00 0.00 68 1009.0
20260506130121 19 306 1.6 6.4 0.00 0.00 0.00 68 1008.9
20260506125553 19 321 1.6 6.4 0.00 0.00 0.00 68 1008.7
20260506125054 19 279 1.6 6.4 0.00 0.00 0.00 69 1008.6
20260506124600 19 286 1.6 6.4 0.00 0.00 0.00 69 1008.5
20260506124057 19 57 1.6 9.7 0.00 0.00 0.00 69 1008.5
20260506123558 19 214 1.6 9.7 0.00 0.00 0.00 70 1008.5
20260506123058 18 80 1.6 6.4 0.00 0.00 0.00 70 1008.5
20260506122554 18 299 3.2 6.4 0.00 0.00 0.00 70 1008.5
20260506122056 18 341 0.0 4.8 0.00 0.00 0.00 71 1008.6
20260506121557 18 287 1.6 6.4 0.00 0.00 0.00 71 1008.7
20260506121057 18 238 1.6 6.4 0.00 0.00 0.00 71 1008.8
20260506120557 18 347 1.6 8.0 0.00 0.00 0.00 70 1008.8
20260506120057 18 313 1.6 8.0 0.00 0.00 0.00 71 1008.8
20260506115602 19 308 1.6 8.0 0.00 0.00 0.00 70 1009.1
20260506115056 19 268 1.6 11.3 0.00 0.00 0.00 70 1009.1
20260506114603 18 312 3.2 11.3 0.00 0.00 0.00 70 1009.0
20260506114055 18 319 3.2 9.7 0.00 0.00 0.00 71 1009.1
20260506113558 18 287 1.6 11.3 0.00 0.00 0.00 71 1009.0
20260506113101 18 0 1.6 11.3 0.00 0.00 0.00 71 1009.1
20260506112558 18 321 0.0 8.0 0.00 0.00 0.00 72 1009.0
20260506112102 18 9 3.2 9.7 0.00 0.00 0.00 72 1009.1
20260506111557 18 62 1.6 9.7 0.00 0.00 0.00 72 1009.0
20260506111057 18 90 3.2 8.0 0.00 0.00 0.00 73 1009.1
20260506110557 18 117 3.2 6.4 0.00 0.00 0.00 73 1009.0
20260506110108 18 86 1.6 8.0 0.00 0.00 0.00 73 1008.8
20260506105558 18 63 1.6 8.0 0.00 0.00 0.00 74 1008.8
20260506105058 18 227 3.2 8.0 0.00 0.00 0.00 74 1008.8
20260506104625 18 91 1.6 6.4 0.00 0.00 0.00 74 1008.6
20260506104055 18 265 1.6 6.4 0.00 0.00 0.00 74 1008.8
20260506103557 17 208 3.2 6.4 0.00 0.00 0.00 74 1009.0
20260506103105 17 287 1.6 4.8 0.00 0.00 0.00 74 1008.8
20260506102554 17 222 1.6 4.8 0.00 0.00 0.00 74 1008.8
20260506102130 17 342 1.6 4.8 0.00 0.00 0.00 74 1008.8
20260506101556 17 192 1.6 4.8 0.00 0.00 0.00 74 1008.7
20260506101057 17 248 1.6 6.4 0.00 0.00 0.00 75 1008.7
20260506100557 17 309 1.6 6.4 0.00 0.00 0.00 75 1008.7
20260506100058 17 62 0.0 4.8 0.00 0.00 0.00 75 1008.5
20260506095601 17 71 1.6 6.4 0.00 0.00 0.00 75 1008.5
20260506095058 17 306 1.6 6.4 0.00 0.00 0.00 75 1008.4
20260506094555 17 290 1.6 4.8 0.00 0.00 0.00 75 1008.5
20260506094057 17 281 1.6 4.8 0.00 0.00 0.00 75 1008.3
20260506093558 17 63 1.6 6.4 0.00 0.00 0.00 75 1008.5
20260506093055 17 311 1.6 6.4 0.00 0.00 0.00 76 1008.5
20260506092554 17 0 1.6 3.2 0.00 0.00 0.00 76 1008.5
20260506092056 17 281 0.0 4.8 0.00 0.00 0.00 76 1008.5
20260506091556 17 46 0.0 4.8 0.00 0.00 0.00 76 1008.6
20260506091057 17 195 1.6 4.8 0.00 0.00 0.00 76 1008.6
20260506090555 17 284 1.6 4.8 0.00 0.00 0.00 76 1008.6
20260506090057 17 69 0.0 3.2 0.00 0.00 0.00 75 1008.7
20260506085558 17 0 0.0 3.2 0.00 0.00 0.00 75 1008.7
20260506085058 17 185 0.0 3.2 0.00 0.00 0.00 75 1008.7
20260506084558 17 0 0.0 3.2 0.00 0.00 0.00 75 1008.8
20260506084057 17 264 0.0 3.2 0.00 0.00 0.00 74 1008.7
20260506083558 17 115 0.0 3.2 0.00 0.00 0.00 74 1008.7
20260506083058 17 27 0.0 3.2 0.00 0.00 0.00 74 1008.8
20260506082554 17 65 0.0 3.2 0.00 0.00 0.00 74 1008.7
20260506082057 18 259 0.0 3.2 0.00 0.00 0.00 73 1008.7
20260506081601 18 60 0.0 3.2 0.00 0.00 0.00 73 1008.7
20260506081057 18 9 0.0 3.2 0.00 0.00 0.00 73 1008.8
20260506080555 18 283 1.6 4.8 0.00 0.00 0.00 73 1008.7
20260506080106 18 0 0.0 4.8 0.00 0.00 0.00 72 1008.8
20260506073058 18 252 0.0 4.8 0.00 0.00 0.00 71 1008.8
20260506072556 18 315 0.0 3.2 0.00 0.00 0.00 71 1008.9
20260506072054 18 337 0.0 3.2 0.00 0.00 0.00 70 1008.8
20260506071626 18 286 0.0 3.2 0.00 0.00 0.00 70 1008.8
20260506071057 18 0 0.0 4.8 0.00 0.00 0.00 69 1008.8
20260506070558 18 0 1.6 4.8 0.00 0.00 0.00 69 1008.8
20260506062054 18 258 0.0 4.8 0.00 0.00 0.00 66 1009.0
20260506061600 18 57 0.0 4.8 0.00 0.00 0.00 66 1008.9
20260506061054 19 252 1.6 4.8 0.00 0.00 0.00 66 1009.0
20260506060558 19 194 0.0 4.8 0.00 0.00 0.00 66 1008.9
20260506051054 20 277 1.6 6.4 0.00 0.00 0.00 62 1009.6
20260506050557 20 284 1.6 6.4 0.00 0.00 0.00 62 1009.7
20260506045056 20 215 1.6 4.8 0.00 0.00 0.00 61 1009.6
20260506044611 20 22 0.0 4.8 0.00 0.00 0.00 60 1009.6
20260506044055 20 173 0.0 4.8 0.00 0.00 0.00 60 1009.5
20260506043556 20 225 0.0 4.8 0.00 0.00 0.00 60 1009.6
20260506043102 20 207 1.6 6.4 0.00 0.00 0.00 60 1009.6
20260506042557 20 240 1.6 6.4 0.00 0.00 0.00 59 1009.7
20260506042056 20 223 1.6 6.4 0.00 0.00 0.00 59 1009.6
20260506041556 20 73 1.6 8.0 0.00 0.00 0.00 59 1009.5
20260506041057 20 59 1.6 8.0 0.00 0.00 0.00 59 1009.5
20260506040554 20 213 1.6 6.4 0.00 0.00 0.00 58 1009.5
20260506040058 20 203 1.6 6.4 0.00 0.00 0.00 58 1009.4
20260506035555 20 36 1.6 4.8 0.00 0.00 0.00 58 1009.5
20260506035055 20 151 1.6 4.8 0.00 0.00 0.00 58 1009.4
20260506034603 20 205 1.6 6.4 0.00 0.00 0.00 58 1009.5
20260506034058 20 44 1.6 8.0 0.00 0.00 0.00 57 1009.5
20260506033557 20 179 1.6 8.0 0.00 0.00 0.00 57 1009.5
20260506033106 20 238 1.6 8.0 0.00 0.00 0.00 57 1009.5
20260506032557 20 0 1.6 6.4 0.00 0.00 0.00 57 1009.5
20260506032054 20 12 1.6 8.0 0.00 0.00 0.00 56 1009.5
20260506031603 21 56 1.6 8.0 0.00 0.00 0.00 56 1009.5
20260506031058 21 11 3.2 8.0 0.00 0.00 0.00 56 1009.4
20260506030553 21 240 1.6 6.4 0.00 0.00 0.00 55 1009.4
20260506030058 21 212 1.6 9.7 0.00 0.00 0.00 55 1009.3
20260506025557 21 76 1.6 9.7 0.00 0.00 0.00 55 1009.3
20260506025055 21 234 3.2 6.4 0.00 0.00 0.00 55 1009.2
20260506024556 21 230 1.6 6.4 0.00 0.00 0.00 54 1009.3
20260506024058 21 227 3.2 6.4 0.00 0.00 0.00 54 1009.3
20260506023558 21 153 1.6 9.7 0.00 0.00 0.00 53 1009.3
20260506023056 22 117 3.2 9.7 0.00 0.00 0.00 52 1009.3
20260506022554 22 95 1.6 9.7 0.00 0.00 0.00 51 1009.3
20260506022057 22 323 1.6 6.4 0.00 0.00 0.00 50 1009.3
20260506021604 22 126 1.6 8.0 0.00 0.00 0.00 48 1009.2
20260506021056 22 330 1.6 9.7 0.00 0.00 0.00 48 1009.2
20260506020557 22 245 3.2 12.9 0.00 0.00 0.00 47 1009.2
20260506020059 22 276 3.2 12.9 0.00 0.00 0.00 47 1009.1
20260506015554 23 102 1.6 11.3 0.00 0.00 0.00 46 1009.1
20260506015057 23 50 3.2 12.9 0.00 0.00 0.00 45 1009.1
20260506014558 23 248 1.6 16.1 0.00 0.00 0.00 45 1009.1
20260506014054 23 287 3.2 17.7 0.00 0.00 0.00 44 1009.1
20260506013555 23 238 4.8 17.7 0.00 0.00 0.00 43 1009.0
20260506013059 23 275 1.6 6.4 0.00 0.00 0.00 42 1008.9
20260506012557 23 96 1.6 4.8 0.00 0.00 0.00 42 1009.0
20260506012100 23 228 1.6 4.8 0.00 0.00 0.00 41 1008.8
20260506011556 23 283 1.6 4.8 0.00 0.00 0.00 41 1008.8
20260506011058 23 298 1.6 8.0 0.00 0.00 0.00 40 1008.8
20260506010555 24 327 1.6 12.9 0.00 0.00 0.00 40 1008.7
20260506005555 24 313 1.6 12.9 0.00 0.00 0.00 40 1008.7
20260506005057 24 44 1.6 6.4 0.00 0.00 0.00 39 1008.6
20260506004604 24 261 1.6 8.0 0.00 0.00 0.00 39 1008.6
20260506004054 24 340 1.6 8.0 0.00 0.00 0.00 38 1008.5
20260506003601 25 293 1.6 8.0 0.00 0.00 0.00 38 1008.5
20260506003107 25 258 1.6 8.0 0.00 0.00 0.00 37 1008.5
20260506002601 25 283 1.6 8.0 0.00 0.00 0.00 37 1008.3
20260506002054 25 220 1.6 6.4 0.00 0.00 0.00 36 1008.2
20260506001606 25 28 1.6 11.3 0.00 0.00 0.00 35 1008.2
20260506001053 25 30 1.6 11.3 0.00 0.00 0.00 35 1008.1
20260506000558 25 232 3.2 14.5 0.00 0.00 0.00 34 1008.2
20260506000105 25 64 1.6 14.5 0.00 0.00 0.00 33 1008.2
20260505235555 25 292 3.2 9.7 0.00 0.00 0.00 33 1008.1
20260505235055 25 360 3.2 6.4 0.00 0.00 0.00 33 1008.0
20260505234613 26 33 1.6 6.4 0.00 0.00 0.00 32 1008.0
20260505234055 26 80 3.2 9.7 0.00 0.00 0.00 32 1008.0
20260505233557 26 21 3.2 9.7 0.00 0.00 0.00 32 1008.0
20260505233059 26 97 1.6 9.7 0.00 0.00 0.00 31 1007.9
20260505232555 26 58 1.6 6.4 0.00 0.00 0.00 31 1007.8
20260505232059 26 119 1.6 6.4 0.00 0.00 0.00 30 1007.8
20260505231558 26 30 1.6 14.5 0.00 0.00 0.00 30 1007.7
20260505231054 26 331 1.6 14.5 0.00 0.00 0.00 30 1007.6
20260505230559 26 113 4.8 14.5 0.00 0.00 0.00 29 1007.4
20260505230100 26 137 3.2 12.9 0.00 0.00 0.00 29 1007.4
20260505225558 26 351 3.2 8.0 0.00 0.00 0.00 29 1007.4
20260505225055 27 91 3.2 12.9 0.00 0.00 0.00 28 1007.3
20260505224559 27 107 4.8 12.9 0.00 0.00 0.00 28 1007.3
20260505224057 27 268 3.2 12.9 0.00 0.00 0.00 28 1007.2
20260505223557 27 343 4.8 16.1 0.00 0.00 0.00 28 1007.2
20260505223108 27 285 4.8 16.1 0.00 0.00 0.00 28 1007.1
20260505222557 27 339 4.8 14.5 0.00 0.00 0.00 28 1007.1
20260505222058 27 260 3.2 16.1 0.00 0.00 0.00 28 1007.1
20260505221600 27 219 3.2 16.1 0.00 0.00 0.00 27 1007.1
20260505221058 27 304 3.2 19.3 0.00 0.00 0.00 27 1007.0
20260505220557 27 265 4.8 19.3 0.00 0.00 0.00 27 1007.1
20260505220100 27 82 3.2 16.1 0.00 0.00 0.00 27 1007.1
20260505215602 27 291 4.8 17.7 0.00 0.00 0.00 27 1007.1
20260505215057 27 315 3.2 17.7 0.00 0.00 0.00 27 1006.9
20260505214604 27 121 3.2 14.5 0.00 0.00 0.00 27 1006.9
20260505214054 27 178 3.2 14.5 0.00 0.00 0.00 28 1006.9
20260505213559 28 335 3.2 19.3 0.00 0.00 0.00 28 1006.8
20260505213056 28 360 4.8 19.3 0.00 0.00 0.00 27 1006.7
20260505212557 28 111 4.8 19.3 0.00 0.00 0.00 27 1006.6
20260505212058 28 62 4.8 17.7 0.00 0.00 0.00 26 1006.6
20260505211634 28 360 6.4 17.7 0.00 0.00 0.00 26 1006.6
20260505211055 28 360 6.4 14.5 0.00 0.00 0.00 27 1006.6
20260505210557 28 304 8.0 17.7 0.00 0.00 0.00 27 1006.6
20260505210059 28 288 6.4 17.7 0.00 0.00 0.00 28 1006.6
20260505205558 28 244 6.4 17.7 0.00 0.00 0.00 27 1006.6
20260505205056 28 26 4.8 17.7 0.00 0.00 0.00 27 1006.6
20260505204557 28 269 6.4 17.7 0.00 0.00 0.00 26 1006.6
20260505204057 28 148 6.4 16.1 0.00 0.00 0.00 26 1006.7
20260505203554 28 346 6.4 16.1 0.00 0.00 0.00 26 1006.6
20260505203124 29 59 4.8 27.4 0.00 0.00 0.00 27 1006.7
20260505202554 29 360 6.4 27.4 0.00 0.00 0.00 27 1006.7
20260505202058 29 317 4.8 16.1 0.00 0.00 0.00 27 1006.8
20260505201558 29 274 3.2 12.9 0.00 0.00 0.00 28 1006.7
20260505201057 28 280 3.2 14.5 0.00 0.00 0.00 28 1006.8
20260505200557 28 283 3.2 17.7 0.00 0.00 0.00 29 1006.8
20260505200057 28 279 6.4 17.7 0.00 0.00 0.00 28 1006.8
20260505195558 29 58 4.8 16.1 0.00 0.00 0.00 27 1006.8
20260505195058 29 360 6.4 16.1 0.00 0.00 0.00 27 1006.9
20260505194558 29 134 6.4 16.1 0.00 0.00 0.00 27 1007.2
20260505194055 29 351 4.8 16.1 0.00 0.00 0.00 28 1006.9
20260505193558 29 40 4.8 14.5 0.00 0.00 0.00 29 1007.1
20260505193102 29 63 3.2 14.5 0.00 0.00 0.00 29 1007.3
20260505192557 29 273 4.8 14.5 0.00 0.00 0.00 30 1007.3
20260505192054 29 296 3.2 14.5 0.00 0.00 0.00 28 1007.4
20260505191603 29 324 3.2 12.9 0.00 0.00 0.00 29 1007.3
20260505191055 29 210 4.8 12.9 0.00 0.00 0.00 29 1007.5
20260505190554 29 175 3.2 14.5 0.00 0.00 0.00 30 1007.4
20260505190054 29 190 4.8 14.5 0.00 0.00 0.00 28 1007.5
20260505185557 29 82 4.8 14.5 0.00 0.00 0.00 27 1007.6
20260505185057 29 109 3.2 17.7 0.00 0.00 0.00 30 1007.7
20260505184555 29 360 3.2 17.7 0.00 0.00 0.00 29 1007.7
20260505184054 29 340 6.4 17.7 0.00 0.00 0.00 29 1007.9
20260505183556 29 296 4.8 16.1 0.00 0.00 0.00 30 1007.9
20260505183059 29 188 4.8 14.5 0.00 0.00 0.00 30 1007.9
20260505182557 29 192 4.8 17.7 0.00 0.00 0.00 31 1008.0
20260505182101 29 360 4.8 17.7 0.00 0.00 0.00 32 1007.9
20260505181559 28 360 4.8 14.5 0.00 0.00 0.00 32 1007.8
20260505181055 28 291 4.8 14.5 0.00 0.00 0.00 32 1007.9
20260505180554 28 360 4.8 14.5 0.00 0.00 0.00 33 1008.0
20260505175557 28 360 3.2 14.5 0.00 0.00 0.00 34 1007.9
20260505175059 28 360 4.8 14.5 0.00 0.00 0.00 33 1008.1
20260505174558 28 112 4.8 14.5 0.00 0.00 0.00 32 1008.2
20260505174057 28 360 6.4 14.5 0.00 0.00 0.00 33 1008.3
20260505173558 28 360 3.2 9.7 0.00 0.00 0.00 35 1008.3
20260505173103 28 360 3.2 11.3 0.00 0.00 0.00 35 1008.5
20260505172600 28 360 4.8 11.3 0.00 0.00 0.00 35 1008.6
20260505172057 28 360 3.2 9.7 0.00 0.00 0.00 36 1008.7
20260505171559 28 360 3.2 9.7 0.00 0.00 0.00 36 1008.7
20260505171057 28 360 3.2 8.0 0.00 0.00 0.00 35 1008.8
20260505170554 28 174 3.2 6.4 0.00 0.00 0.00 36 1008.9
20260505170059 27 315 1.6 6.4 0.00 0.00 0.00 37 1008.8
20260505165555 27 256 3.2 14.5 0.00 0.00 0.00 38 1008.9
20260505165056 27 295 1.6 14.5 0.00 0.00 0.00 39 1009.1
20260505164602 27 311 3.2 11.3 0.00 0.00 0.00 37 1009.1
20260505164057 27 343 3.2 11.3 0.00 0.00 0.00 39 1009.2
20260505163554 27 311 3.2 8.0 0.00 0.00 0.00 38 1009.2
20260505163102 27 333 1.6 8.0 0.00 0.00 0.00 39 1009.3
20260505162554 27 250 1.6 8.0 0.00 0.00 0.00 40 1009.4
20260505162058 26 360 1.6 8.0 0.00 0.00 0.00 40 1009.5
20260505161602 26 360 3.2 8.0 0.00 0.00 0.00 42 1009.5
20260505161057 26 360 1.6 6.4 0.00 0.00 0.00 43 1009.5
20260505160556 26 360 3.2 14.5 0.00 0.00 0.00 41 1009.6
20260505160108 25 360 3.2 14.5 0.00 0.00 0.00 43 1009.6
20260505153058 25 46 1.6 6.4 0.00 0.00 0.00 44 1010.1
20260505152558 24 360 1.6 6.4 0.00 0.00 0.00 46 1010.1
20260505152054 24 52 3.2 6.4 0.00 0.00 0.00 45 1010.2
20260505151558 24 360 1.6 6.4 0.00 0.00 0.00 46 1010.3
20260505151054 23 360 1.6 8.0 0.00 0.00 0.00 46 1010.2
20260505150558 23 360 1.6 8.0 0.00 0.00 0.00 48 1010.2